Regional Weather Roundup
Issued by NWS Northern Indiana

Home | Current Version | Previous Version | Text Only | Print | Product List | Glossary On
Versions: 1 2 3 4 5 6 7 8 9 10 11 12 13 14 15 16 17 18 19 20 21 22 23 24 25 26 27 28 29 30 31 32 33 34 35 36 37 38 39 40 41 42 43 44 45 46 47 48 49 50
000
ASUS43 KIWX 280510
RWRIWX

KIWX WEATHER ROUNDUP
NATIONAL WEATHER SERVICE NORTHERN INDIANA
100 AM EDT TUE MAR 28 2017

NOTE: "FAIR" INDICATES FEW OR NO CLOUDS BELOW 12,000 FEET WITH NO
SIGNIFICANT WEATHER AND/OR OBSTRUCTIONS TO VISIBILITY.

* THESE STATIONS ARE NOT UNDER NWS QUALITY CONTROL. THEY ALSO MAY NOT
  REPORT WEATHER SUCH AS PRECIPITATION OR FOG.

INZ001>027-280600-
NORTHERN INDIANA

CITY           SKY/WX    TMP DP  RH WIND       PRES   REMARKS
GARY*          CLOUDY    41  38  89 N7        29.98S
VALPARAISO     CLOUDY    41  38  89 N8        29.95S
MICHIGAN CITY* CLOUDY    37  37 100 N8        29.97R
LAPORTE*       CLOUDY    41  38  89 N9        29.94F
KNOX*          CLOUDY    43  30  61 N9        29.92F
SOUTH BEND     CLOUDY    42  40  92 N6        29.94S
GOSHEN         CLOUDY    50  45  83 N9        29.91S
MONTICELLO*    CLOUDY    49  47  94 N10       29.90S FOG
LOGANSPORT*    CLOUDY    52  50  93 N10       29.90R FOG
ROCHESTER*     LGT RAIN  52  50  93 N7        29.90F
WARSAW*        CLOUDY    50  46  87 N7        29.90S
ANGOLA*        CLOUDY    50  37  62 N6        29.90S
FORT WAYNE     CLOUDY    54  50  86 N10       29.87F
HUNTINGTON*    LGT RAIN  53  52  96 N6        29.87S
PERU/GRISSOM   CLOUDY    54  54 100 N9        29.87S
MARION*        CLOUDY    53  52  95 NE9       29.87S FOG

$$
INZ028>050-280600-
CENTRAL INDIANA

CITY           SKY/WX    TMP DP  RH WIND       PRES   REMARKS
LAFAYETTE      CLOUDY    50  50 100 N12       29.90R FOG
KOKOMO*        LGT RAIN  54  52  93 N9        29.88S
MUNCIE*        RAIN      55  53  93 NE12      29.85S FOG
INDIANAPOLIS   LGT RAIN  56  54  93 N8        29.85R

$$
MIZ043>046-050>051-056>058-064>065-071>073-077>080-280600-
SOUTHWEST LOWER MICHIGAN

CITY           SKY/WX    TMP DP  RH WIND       PRES   REMARKS
BATTLE CREEK   CLOUDY    47  44  90 N5        29.93S
BENTON HARBOR  CLOUDY    38  35  89 NW3       29.96R
COLDWATER*     CLOUDY    49  47  90 N5        29.92R
HILLSDALE*     CLOUDY    50  46  87 N5        29.90S
HOLLAND        CLOUDY    41  36  82 N3        29.96S
GRAND RAPIDS   CLOUDY    45  42  89 N5        29.94S
KALAMAZOO      CLOUDY    45  40  82 N8        29.93F
STURGIS*       CLOUDY    47  45  92 CALM      29.92R
THREE RIVERS*  CLOUDY    47  43  87 N3        29.93S

$$
OHZ001>008-015>018-024>025-280600-
NORTHWEST OHIO

CITY           SKY/WX    TMP DP  RH WIND       PRES   REMARKS
WAUSEON*       CLOUDY    52  50  93 N8        29.89S
DEFIANCE       CLOUDY    53  48  83 N9        29.88F
FINDLAY        CLOUDY    57  48  72 NE9       29.85F
TOLEDO EXPRESS CLOUDY    53  49  86 N9        29.88F
TOLEDO METCALF CLOUDY    53  50  89 NE3       29.89F
LIMA           LGT RAIN  55  51  86 NE6       29.85S

$$
AND FOR LAKE MICHIGAN COASTAL AND OPEN LAKE BUOY OBSERVATIONS

STATION/POSITION TEMP    WIND        PRES    VSBY  WAVE
                 AIR SEA DIR/SP/G                  HT/PER
                 (F)     (DEG/KT/KT) (MB)    (MI)  (FT/S)
CALUMET HARBOR    39     340/  7/  9 1014.6F
MICHIGAN CITY     38     350/  7/  8   N/A
BURNS HARBOR      39     350/ 10/ 13 1015.2
SAINT JOSEPH      38      20/  7/  9 1014.9

$$
&&




USA.gov is the U.S. government's official web portal to all federal, state and local government web resources and services.